Weather History for Crestview, FL

Change the Weather History Date:

Friday, July 19, 2013

  Actual Average Record
Temperature  
Mean Temperature 78 °F -  
Max Temperature 87 °F - - ()
Min Temperature 71 °F - - ()
Cooling Degree Days 14    
Growing Degree Days 28 (Base 50)    
Moisture  
Dew Point 73 °F    
Average Humidity 88    
Maximum Humidity 100    
Minimum Humidity 58    
Precipitation  
Precipitation 0.00 in - - ()
Sea Level Pressure  
Sea Level Pressure 30.06 in    
Wind  
Wind Speed 3 mph (East)    
Max Wind Speed 9 mph    
Max Gust Speed -    
Visibility 8 miles    
Events      
T = Trace of Precipitation, MM = Missing Value Source: NWS Daily Summary

Daily Weather History Graph

Daily Weather History Graph

Search for Another Location

Airport:

Trip Planner

Search our weather history database for the weather conditions in past years. The results will help you decide how hot, cold, wet, or windy it might be!

Date:

Astronomy

Jul. 19, 2013 Rise Set
Actual Time 5:56 AM CDT 7:48 PM CDT
Civil Twilight 5:29 AM CDT 8:15 PM CDT
Nautical Twilight 4:56 AM CDT 8:47 PM CDT
Astronomical Twilight 4:22 AM CDT 9:21 PM CDT
Moon 4:50 PM CDT (7/19) 2:35 AM CDT (7/19)
Length of Visible Light 14h 45m
Length of Day
13h 52m
Waxing Gibbous, 87% of the Moon is Illuminated
Jul 19
Waxing Gibbous
Jul 22
Full
Jul 29
Last Quarter
Aug 6
New
Aug 14
First Quarter

Hourly Weather History & Observations

Time (CDT) Temp. Heat Index Dew Point Humidity Pressure Visibility Wind Dir Wind Speed Gust Speed Precip Events Conditions
12:58 AM 73.8 °F - 73.4 °F 99% 30.09 in 10.0 mi Calm Calm - N/A   Clear
1:13 AM 73.4 °F - 73.4 °F 100% 30.08 in 2.5 mi NE 2.3 mph - N/A   Clear
1:18 AM 73.4 °F - 73.4 °F 100% 30.08 in 1.0 mi NE 1.2 mph - N/A   Clear
1:23 AM 73.4 °F - 73.4 °F 100% 30.08 in 0.8 mi ENE 2.3 mph - N/A   Clear
1:38 AM 73.4 °F - 73.4 °F 100% 30.07 in 1.0 mi NE 2.3 mph - N/A   Clear
1:48 AM 73.4 °F - 73.4 °F 100% 30.07 in 1.2 mi NE 3.5 mph - N/A   Clear
1:53 AM 73.4 °F - 73.4 °F 100% 30.07 in 1.5 mi ENE 2.3 mph - N/A   Clear
1:58 AM 73.4 °F - 73.4 °F 100% 30.08 in 2.5 mi ENE 2.3 mph - N/A   Clear
2:03 AM 73.4 °F - 73.4 °F 100% 30.06 in 6.0 mi Calm Calm - N/A   Clear
2:23 AM 73.4 °F - 73.4 °F 100% 30.06 in 2.5 mi ENE 1.2 mph - N/A   Clear
2:28 AM 71.6 °F - 71.6 °F 100% 30.05 in 1.5 mi East 2.3 mph - N/A   Clear
2:38 AM 71.6 °F - 71.6 °F 100% 30.05 in 4.0 mi East 3.5 mph - N/A   Clear
2:58 AM 72.5 °F - 72.1 °F 99% 30.05 in 10.0 mi East 4.6 mph - N/A   Clear
3:58 AM 72.3 °F - 72.0 °F 99% 30.06 in 10.0 mi ESE 1.2 mph - N/A   Clear
4:58 AM 71.8 °F - 71.6 °F 99% 30.06 in 10.0 mi NNE 1.2 mph - N/A   Clear
5:58 AM 71.4 °F - 71.2 °F 99% 30.06 in 10.0 mi ENE 3.5 mph - N/A   Clear
6:58 AM 73.0 °F - 72.9 °F 99% 30.07 in 10.0 mi East 3.5 mph - N/A   Clear
7:58 AM 74.3 °F - 72.5 °F 94% 30.11 in 10.0 mi Variable 2.3 mph - N/A   Clear
8:58 AM 80.4 °F 85.0 °F 73.4 °F 79% 30.11 in 10.0 mi NE 6.9 mph - N/A   Partly Cloudy
9:55 AM 82.4 °F 87.2 °F 71.6 °F 70% 30.10 in 10.0 mi Variable 3.5 mph - N/A   Light Drizzle
9:58 AM 81.7 °F 86.3 °F 71.8 °F 72% 30.10 in 10.0 mi NE 3.5 mph - 0.00 in   Light Drizzle
10:00 AM 82.4 °F 87.2 °F 71.6 °F 70% 30.10 in 10.0 mi NE 4.6 mph - N/A   Clear
10:58 AM 82.8 °F 87.2 °F 70.7 °F 67% 30.11 in 10.0 mi ESE 6.9 mph - 0.00 in   Scattered Clouds
11:58 AM 85.1 °F 90.4 °F 71.4 °F 63% 30.09 in 10.0 mi ENE 8.1 mph - N/A   Scattered Clouds
12:58 PM 86.5 °F 91.4 °F 70.0 °F 58% 30.05 in 10.0 mi SE 8.1 mph - N/A   Mostly Cloudy
1:58 PM 86.2 °F 90.7 °F 69.8 °F 58% 30.04 in 10.0 mi ESE 8.1 mph - N/A   Mostly Cloudy
2:58 PM 84.7 °F 89.4 °F 70.5 °F 62% 30.04 in 10.0 mi SSE 9.2 mph - N/A   Clear
3:58 PM 83.3 °F 88.7 °F 72.1 °F 69% 30.04 in 10.0 mi SE 9.2 mph - N/A   Partly Cloudy
4:18 PM 82.4 °F 87.2 °F 71.6 °F 70% 30.05 in 10.0 mi East 9.2 mph - N/A   Light Drizzle
4:40 PM 78.8 °F - 73.4 °F 83% 30.04 in 10.0 mi SE 4.6 mph - N/A   Partly Cloudy
4:58 PM 81.0 °F 86.3 °F 74.3 °F 80% 30.04 in 10.0 mi ENE 6.9 mph - 0.00 in   Partly Cloudy
5:58 PM 79.3 °F - 72.7 °F 80% 30.01 in 10.0 mi East 4.6 mph - N/A   Clear
6:58 PM 78.4 °F - 73.4 °F 84% 29.99 in 10.0 mi NE 4.6 mph - N/A   Clear
7:58 PM 76.3 °F - 73.6 °F 91% 30.01 in 10.0 mi East 3.5 mph - N/A   Mostly Cloudy
8:58 PM 77.2 °F - 72.5 °F 85% 30.01 in 10.0 mi SE 2.3 mph - N/A   Scattered Clouds
9:58 PM 76.5 °F - 72.7 °F 88% 30.04 in 10.0 mi East 1.2 mph - N/A   Scattered Clouds
10:58 PM 75.4 °F - 73.6 °F 94% 30.04 in 10.0 mi ENE 3.5 mph - N/A   Mostly Cloudy
11:03 PM 75.2 °F - 73.4 °F 94% 30.04 in 10.0 mi ENE 3.5 mph - N/A   Mostly Cloudy
11:23 PM 75.2 °F - 73.4 °F 94% 30.04 in 10.0 mi ENE 3.5 mph - N/A   Scattered Clouds
11:32 PM 75.2 °F - 73.4 °F 94% 30.04 in 10.0 mi East 2.3 mph - N/A   Light Drizzle
11:43 PM 75.2 °F - 75.2 °F 100% 30.04 in 10.0 mi Calm Calm - N/A   Partly Cloudy
11:58 PM 75.2 °F - 74.5 °F 98% 30.04 in 10.0 mi ENE 4.6 mph - 0.00 in   Partly Cloudy